Location: Fort Wayne
(41.1310°N, 85.1290°W)
Time: 19:29:53
(UTC-04:00)

Helios 1B - Visible Passes

Search period start: 31 July 2015 00:00
Search period end: 10 August 2015 00:00
Orbit: 623 x 625 km, 98.1° (Epoch: 31 July)

Date Brightness Start Highest point End Pass type
(mag) Time Alt. Az. Time Alt. Az. Time Alt. Az.
31 Jul 5.4 00:32:42 47° NNE 00:32:42 47° NNE 00:35:57 10° N visible
31 Jul 7.0 23:14:18 11° ENE 23:14:31 11° ENE 23:15:42 10° NE visible
01 Aug 5.7 00:51:34 43° NNW 00:51:34 43° NNW 00:54:32 10° NNW visible
01 Aug 6.6 23:33:10 16° ENE 23:33:10 16° ENE 23:35:43 10° NNE visible
02 Aug 6.2 01:10:25 31° NW 01:10:25 31° NW 01:12:59 10° NNW visible
02 Aug 6.2 23:52:01 24° NE 23:52:01 24° NE 23:54:56 10° NNE visible
03 Aug 6.7 01:29:16 21° NW 01:29:16 21° NW 01:31:15 10° NW visible
04 Aug 5.9 00:10:52 33° NE 00:10:52 33° NE 00:13:52 10° N visible
04 Aug 7.1 01:48:08 14° WNW 01:48:08 14° WNW 01:49:13 10° NW visible
05 Aug 5.8 00:29:44 39° NNE 00:29:44 39° NNE 00:32:38 10° N visible
06 Aug 6.0 00:48:35 37° NNW 00:48:35 37° NNW 00:51:15 10° NNW visible
06 Aug 6.7 23:30:11 15° ENE 23:30:11 15° ENE 23:32:14 10° NNE visible
07 Aug 6.4 01:07:27 29° NW 01:07:27 29° NW 01:09:44 10° NNW visible
07 Aug 6.4 23:49:03 21° NE 23:49:03 21° NE 23:51:32 10° NNE visible
08 Aug 6.8 01:26:18 20° NW 01:26:18 20° NW 01:28:02 10° NNW visible
09 Aug 6.2 00:07:54 28° NE 00:07:54 28° NE 00:10:30 10° N visible
09 Aug 7.2 01:45:10 14° NW 01:45:10 14° NW 01:46:05 10° NW visible
